Weather History for York, PA

Change the Weather History Date:

Friday, April 12, 2013

  Actual Average Record
Temperature  
Mean Temperature 50 °F -  
Max Temperature 52 °F 0 °F 78 °F (2008)
Min Temperature 46 °F - 28 °F (1998)
Degree Days  
Heating Degree Days 16    
Moisture  
Dew Point 46 °F    
Average Humidity 91    
Maximum Humidity 100    
Minimum Humidity 77    
Precipitation  
Precipitation 0.00 in - - ()
Sea Level Pressure  
Sea Level Pressure 29.72 in    
Wind  
Wind Speed 10 mph (ENE)    
Max Wind Speed 18 mph    
Max Gust Speed 24 mph    
Visibility 4 miles    
Events Rain , Thunderstorm    
Averages and records for this station are not official NWS values.
T = Trace of Precipitation, MM = Missing Value Source: NWS Daily Summary

Daily Weather History Graph

Daily Weather History Graph

Search for Another Location

Airport:

Trip Planner

Search our weather history database for the weather conditions in past years. The results will help you decide how hot, cold, wet, or windy it might be!

Date:

Astronomy

Apr. 12, 2013 Rise Set
Actual Time 6:33 AM EDT 7:43 PM EDT
Civil Twilight 6:06 AM EDT 8:10 PM EDT
Nautical Twilight 5:32 AM EDT 8:44 PM EDT
Astronomical Twilight 4:58 AM EDT 9:19 PM EDT
Moon 7:42 AM EDT (4/12) 10:11 PM EDT (4/12)
Length of Visible Light 14h 04m
Length of Day
13h 09m
Waxing Crescent, 5% of the Moon is Illuminated
Apr 12
Waxing Crescent
Apr 18
First Quarter
Apr 25
Full
May 2
Last Quarter
May 9
New

Hourly Weather History & Observations

Time (EDT) Temp. Windchill Dew Point Humidity Pressure Visibility Wind Dir Wind Speed Gust Speed Precip Events Conditions
12:23 AM 53.6 °F - 46.4 °F 77% 29.86 in 10.0 mi East 15.0 mph 20.7 mph N/A   Overcast
12:53 AM 53.1 °F - 46.9 °F 80% 29.86 in 10.0 mi East 9.2 mph - N/A   Overcast
1:24 AM 51.8 °F - 46.4 °F 82% 29.84 in 8.0 mi East 16.1 mph - N/A   Overcast
1:46 AM 51.8 °F - 46.4 °F 82% 29.83 in 7.0 mi ESE 15.0 mph 23.0 mph N/A   Overcast
1:53 AM 51.1 °F - 46.9 °F 86% 29.83 in 7.0 mi ESE 12.7 mph - N/A   Overcast
2:53 AM 50.0 °F - 46.9 °F 89% 29.82 in 5.0 mi ESE 9.2 mph - N/A   Overcast
3:41 AM 48.2 °F - 46.4 °F 93% 29.80 in 5.0 mi ESE 12.7 mph 23.0 mph N/A   Overcast
3:53 AM 48.9 °F - 46.9 °F 93% 29.80 in 5.0 mi ESE 13.8 mph - N/A   Overcast
4:53 AM 48.9 °F - 46.0 °F 90% 29.77 in 6.0 mi East 10.4 mph - 0.00 in   Overcast
5:53 AM 48.9 °F - 46.0 °F 90% 29.74 in 5.0 mi ESE 13.8 mph - 0.00 in Rain Light Rain
6:09 AM 48.2 °F - 46.4 °F 93% 29.72 in 8.0 mi East 13.8 mph - 0.00 in Rain , Thunderstorm Light Rain
6:24 AM 48.2 °F - 46.4 °F 93% 29.71 in 10.0 mi East 12.7 mph - 0.00 in   Overcast
6:50 AM 48.2 °F - 44.6 °F 87% 29.71 in 10.0 mi ESE 13.8 mph 20.7 mph 0.00 in   Overcast
6:53 AM 48.0 °F - 45.0 °F 89% 29.71 in 8.0 mi ESE 18.4 mph 24.2 mph 0.00 in Rain Light Rain
7:39 AM 48.2 °F - 44.6 °F 87% 29.72 in 7.0 mi SE 9.2 mph 18.4 mph N/A Rain , Thunderstorm Light Thunderstorms and Rain
7:46 AM 48.2 °F - 44.6 °F 87% 29.71 in 2.0 mi ESE 11.5 mph - N/A Rain , Thunderstorm Heavy Thunderstorms and Rain
7:53 AM 48.0 °F - 45.0 °F 89% 29.72 in 1.5 mi ESE 5.8 mph - N/A Rain , Thunderstorm Heavy Rain
8:06 AM 48.2 °F - 46.4 °F 93% 29.78 in 2.0 mi West 16.1 mph - N/A Rain Heavy Rain
8:12 AM 48.2 °F - 46.4 °F 93% 29.78 in 1.0 mi West 10.4 mph 20.7 mph N/A Rain Heavy Rain
8:18 AM 48.2 °F - 46.4 °F 93% 29.77 in 1.0 mi WNW 6.9 mph - N/A Rain Heavy Rain
8:24 AM 48.2 °F - 46.4 °F 93% 29.76 in 1.5 mi NNE 3.5 mph - N/A Rain Rain
8:28 AM 48.2 °F - 46.4 °F 93% 29.76 in 2.5 mi NE 4.6 mph - N/A Rain Rain
8:37 AM 48.2 °F - 46.4 °F 93% 29.76 in 6.0 mi ENE 3.5 mph - N/A Rain Light Rain
8:45 AM 48.2 °F - 46.4 °F 93% 29.76 in 10.0 mi ENE 4.6 mph - N/A Rain Light Rain
8:53 AM 48.9 °F - 46.9 °F 93% 29.77 in 7.0 mi East 4.6 mph - N/A Rain Light Rain
9:53 AM 50.0 °F - 46.0 °F 86% 29.71 in 10.0 mi East 8.1 mph - N/A   Overcast
10:06 AM 50.0 °F - 46.4 °F 87% 29.71 in 10.0 mi East 6.9 mph - N/A   Overcast
10:53 AM 50.0 °F - 46.9 °F 89% 29.72 in 10.0 mi East 8.1 mph - N/A   Overcast
11:53 AM 51.1 °F - 48.0 °F 89% 29.71 in 9.0 mi East 6.9 mph - N/A   Overcast
12:53 PM 51.1 °F - 48.0 °F 89% 29.70 in 6.0 mi ENE 6.9 mph - N/A   Overcast
1:53 PM 51.1 °F - 48.0 °F 89% 29.68 in 4.0 mi NE 9.2 mph - N/A   Overcast
2:03 PM 51.8 °F - 48.2 °F 88% 29.67 in 2.0 mi ENE 9.2 mph - N/A   Overcast
2:16 PM 51.8 °F - 48.2 °F 88% 29.66 in 2.5 mi ENE 6.9 mph - N/A   Overcast
2:24 PM 51.8 °F - 48.2 °F 88% 29.66 in 3.0 mi NE 10.4 mph - N/A   Overcast
2:53 PM 52.0 °F - 48.9 °F 89% 29.66 in 3.0 mi ENE 9.2 mph - N/A   Overcast
3:53 PM 51.1 °F - 48.0 °F 89% 29.66 in 5.0 mi NE 9.2 mph - N/A   Overcast
4:23 PM 50.0 °F - 46.4 °F 87% 29.66 in 2.5 mi NE 9.2 mph - N/A   Overcast
4:32 PM 50.0 °F - 46.4 °F 87% 29.65 in 2.5 mi NE 8.1 mph - N/A   Overcast
4:53 PM 50.0 °F - 46.9 °F 89% 29.66 in 2.0 mi ENE 8.1 mph - N/A   Overcast
5:06 PM 50.0 °F - 46.4 °F 87% 29.65 in 2.5 mi NE 9.2 mph - N/A   Overcast
5:40 PM 50.0 °F - 46.4 °F 87% 29.66 in 4.0 mi NNE 6.9 mph - N/A   Overcast
5:53 PM 48.9 °F - 46.9 °F 93% 29.67 in 3.0 mi NNE 9.2 mph - N/A   Overcast
6:02 PM 48.2 °F - 46.4 °F 93% 29.66 in 2.0 mi NE 8.1 mph - N/A   Overcast
6:18 PM 48.2 °F - 46.4 °F 93% 29.66 in 1.2 mi NE 9.2 mph - N/A   Overcast
6:30 PM 48.2 °F - 46.4 °F 93% 29.66 in 2.5 mi NNE 6.9 mph - N/A   Overcast
6:37 PM 48.2 °F - 46.4 °F 93% 29.67 in 1.8 mi ENE 9.2 mph - N/A   Overcast
6:45 PM 48.2 °F - 46.4 °F 93% 29.67 in 0.8 mi ENE 10.4 mph - 0.00 in Rain Light Rain
6:53 PM 48.0 °F - 46.0 °F 93% 29.68 in 1.0 mi NE 8.1 mph - 0.00 in Rain Light Rain
7:16 PM 48.2 °F - 46.4 °F 93% 29.67 in 0.8 mi NE 9.2 mph - 0.00 in Rain Light Rain
7:21 PM 48.2 °F - 46.4 °F 93% 29.67 in 1.2 mi NE 8.1 mph - 0.00 in Rain Light Rain
7:33 PM 46.4 °F 43.5 °F 46.4 °F 100% 29.67 in 0.8 mi NE 5.8 mph - 0.00 in   Overcast
7:41 PM 46.4 °F 42.9 °F 46.4 °F 100% 29.67 in 1.2 mi ENE 6.9 mph - 0.00 in   Overcast
7:47 PM 46.4 °F 41.9 °F 44.6 °F 93% 29.67 in 2.5 mi ENE 9.2 mph - 0.00 in   Overcast
7:53 PM 46.9 °F - 45.0 °F 93% 29.69 in 4.0 mi ENE 8.1 mph - 0.00 in   Overcast
8:37 PM 46.4 °F 42.9 °F 44.6 °F 93% 29.68 in 2.5 mi NE 6.9 mph - N/A   Overcast
8:46 PM 46.4 °F 43.5 °F 44.6 °F 93% 29.69 in 3.0 mi NE 5.8 mph - N/A   Overcast
8:53 PM 46.9 °F - 45.0 °F 93% 29.71 in 4.0 mi NE 4.6 mph - N/A   Overcast
9:14 PM 46.4 °F 44.3 °F 44.6 °F 93% 29.71 in 2.0 mi NNW 4.6 mph - N/A   Overcast
9:35 PM 46.4 °F 42.9 °F 44.6 °F 93% 29.73 in 1.8 mi North 6.9 mph - N/A   Overcast
9:46 PM 46.4 °F 42.9 °F 44.6 °F 93% 29.73 in 2.0 mi North 6.9 mph - N/A   Overcast
9:53 PM 46.9 °F - 45.0 °F 93% 29.74 in 2.0 mi North 6.9 mph - N/A   Overcast
10:02 PM 46.4 °F 43.5 °F 44.6 °F 93% 29.74 in 2.5 mi NNW 5.8 mph - N/A   Overcast
10:33 PM 46.4 °F 44.3 °F 44.6 °F 93% 29.75 in 3.0 mi North 4.6 mph - N/A   Overcast
10:53 PM 46.9 °F - 45.0 °F 93% 29.78 in 3.0 mi NNW 5.8 mph - N/A   Overcast
11:38 PM 46.4 °F 45.2 °F 44.6 °F 93% 29.79 in 2.5 mi NW 3.5 mph - N/A   Overcast
11:53 PM 46.0 °F 43.9 °F 44.1 °F 93% 29.81 in 3.0 mi WNW 4.6 mph - N/A   Overcast